Time,TemperatureF,DewpointF,PressureIn,WindDirection,WindDirectionDegrees,WindSpeedMPH,WindSpeedGustMPH,Humidity,HourlyPrecipIn,Conditions,Clouds,dailyrainin,SoftwareType,DateUTC
2013-01-30 00:04:00,61.0,54.0,-100.00,South,175,22.0,24.0,81,0.00,,,-99.99,,2013-01-30 05:04:00,
2013-01-30 00:12:00,61.0,54.0,-100.00,SSE,155,21.0,24.0,81,0.00,,,-99.99,,2013-01-30 05:12:00,
2013-01-30 00:22:00,62.0,55.0,-100.00,SSE,155,22.0,24.0,81,0.00,,,-99.99,,2013-01-30 05:22:00,
2013-01-30 00:32:00,62.0,55.0,-100.00,South,172,24.0,30.0,80,0.00,,,-99.99,,2013-01-30 05:32:00,
2013-01-30 00:43:00,63.0,55.0,-100.00,SSE,168,22.0,30.0,81,0.00,,,-99.99,,2013-01-30 05:43:00,
2013-01-30 00:52:00,62.0,55.0,-100.00,SSE,166,24.0,30.0,80,0.00,,,-99.99,,2013-01-30 05:52:00,
2013-01-30 01:02:00,62.0,55.0,-100.00,SSE,166,25.0,30.0,80,0.00,,,-99.99,,2013-01-30 06:02:00,
2013-01-30 01:12:00,62.0,55.0,-100.00,South,169,22.0,30.0,80,0.00,,,-99.99,,2013-01-30 06:12:00,
2013-01-30 01:22:00,62.0,55.0,-100.00,SSE,166,22.0,30.0,80,0.00,,,-99.99,,2013-01-30 06:22:00,
2013-01-30 01:32:00,62.0,55.0,-100.00,SSE,162,21.0,30.0,80,0.00,,,-99.99,,2013-01-30 06:32:00,
2013-01-30 01:42:00,62.0,55.0,-100.00,SE,142,22.0,30.0,80,0.00,,,-99.99,,2013-01-30 06:42:00,
2013-01-30 01:52:00,62.0,55.0,-100.00,SSE,166,25.0,30.0,81,0.00,,,-99.99,,2013-01-30 06:52:00,
2013-01-30 02:02:00,62.0,55.0,-100.00,SSE,159,23.0,30.0,81,0.00,,,-99.99,,2013-01-30 07:02:00,
2013-01-30 02:11:00,62.0,55.0,-100.00,South,172,24.0,30.0,80,0.00,,,-99.99,,2013-01-30 07:11:00,
2013-01-30 02:22:00,63.0,57.0,-100.00,South,179,22.0,30.0,81,0.00,,,-99.99,,2013-01-30 07:22:00,
2013-01-30 02:32:00,63.0,55.0,-100.00,SSE,163,22.0,30.0,80,0.00,,,-99.99,,2013-01-30 07:32:00,
2013-01-30 02:42:00,63.0,55.0,-100.00,SSE,158,24.0,30.0,80,0.00,,,-99.99,,2013-01-30 07:42:00,
2013-01-30 02:52:00,64.0,57.0,-100.00,SSE,159,24.0,30.0,80,0.00,,,-99.99,,2013-01-30 07:52:00,
2013-01-30 03:02:00,63.0,55.0,-100.00,South,179,24.0,30.0,80,0.00,,,-99.99,,2013-01-30 08:02:00,
2013-01-30 03:11:00,64.0,55.0,-100.00,South,175,27.0,30.0,78,0.00,,,-99.99,,2013-01-30 08:11:00,
2013-01-30 03:22:00,64.0,55.0,-100.00,South,172,25.0,30.0,78,0.00,,,-99.99,,2013-01-30 08:22:00,
2013-01-30 03:32:00,64.0,55.0,-100.00,South,176,23.0,30.0,78,0.00,,,-99.99,,2013-01-30 08:32:00,
2013-01-30 03:42:00,64.0,55.0,-100.00,South,172,26.0,30.0,77,0.00,,,-99.99,,2013-01-30 08:42:00,
2013-01-30 03:52:00,64.0,55.0,-100.00,South,180,29.0,37.0,76,0.00,,,-99.99,,2013-01-30 08:52:00,
2013-01-30 04:02:00,64.0,55.0,-100.00,SSE,163,30.0,37.0,76,0.00,,,-99.99,,2013-01-30 09:02:00,
2013-01-30 04:11:00,64.0,55.0,-100.00,South,170,31.0,37.0,77,0.00,,,-99.99,,2013-01-30 09:11:00,
2013-01-30 04:22:00,64.0,55.0,-100.00,South,172,28.0,37.0,78,0.00,,,-99.99,,2013-01-30 09:22:00,
2013-01-30 04:32:00,59.0,55.0,-100.00,SW,228,21.0,37.0,90,20.39,,,-99.99,,2013-01-30 09:32:00,
2013-01-30 04:42:00,58.0,55.0,-100.00,SW,221,15.0,37.0,93,-99.99,,,-99.99,,2013-01-30 09:42:00,
2013-01-30 04:51:00,58.0,55.0,-100.00,SW,217,14.0,37.0,93,-99.99,,,-99.99,,2013-01-30 09:51:00,
2013-01-30 05:02:00,57.0,54.0,-100.00,WSW,256,12.0,37.0,94,17.01,,,-99.99,,2013-01-30 10:02:00,
2013-01-30 05:12:00,56.0,54.0,-100.00,WSW,252,14.0,37.0,94,0.00,,,-99.99,,2013-01-30 10:12:00,
2013-01-30 05:21:00,55.0,52.0,-100.00,West,271,13.0,37.0,94,-99.99,,,-99.99,,2013-01-30 10:21:00,
2013-01-30 05:32:00,54.0,52.0,-100.00,West,273,10.0,37.0,95,-99.99,,,-99.99,,2013-01-30 10:32:00,
2013-01-30 05:42:00,53.0,52.0,-100.00,WNW,289,10.0,37.0,95,31.18,,,-99.99,,2013-01-30 10:42:00,
2013-01-30 05:52:00,53.0,50.0,-100.00,West,266,9.0,37.0,95,-99.99,,,-99.99,,2013-01-30 10:52:00,
2013-01-30 06:02:00,53.0,50.0,-100.00,West,269,9.0,37.0,95,-99.99,,,-99.99,,2013-01-30 11:02:00,
2013-01-30 06:11:00,52.0,50.0,-100.00,West,278,9.0,37.0,97,-99.99,,,-99.99,,2013-01-30 11:11:00,
2013-01-30 06:22:00,53.0,52.0,-100.00,West,275,10.0,37.0,97,18.70,,,-99.99,,2013-01-30 11:22:00,
2013-01-30 06:33:00,53.0,52.0,-100.00,WNW,302,10.0,37.0,97,-99.99,,,-99.99,,2013-01-30 11:33:00,
2013-01-30 06:42:00,53.0,52.0,-100.00,WNW,283,11.0,37.0,97,-99.99,,,-99.99,,2013-01-30 11:42:00,
2013-01-30 06:52:00,53.0,50.0,-100.00,WNW,282,8.0,37.0,97,20.39,,,-99.99,,2013-01-30 11:52:00,
2013-01-30 07:02:00,52.0,50.0,-100.00,WNW,286,5.0,37.0,97,-99.99,,,-99.99,,2013-01-30 12:02:00,
2013-01-30 07:12:00,52.0,50.0,-100.00,West,264,2.0,37.0,97,-99.99,,,-99.99,,2013-01-30 12:12:00,
2013-01-30 07:22:00,51.0,50.0,-100.00,SW,235,1.0,37.0,97,-99.99,,,-99.99,,2013-01-30 12:22:00,
2013-01-30 07:33:00,51.0,50.0,-100.00,SE,135,2.0,37.0,97,-99.99,,,-99.99,,2013-01-30 12:33:00,
2013-01-30 07:43:00,51.0,50.0,-100.00,SE,125,2.0,37.0,97,6.22,,,-99.99,,2013-01-30 12:43:00,
2013-01-30 08:03:00,49.0,46.0,-100.00,SE,128,4.0,37.0,98,1.14,,,-99.99,,2013-01-30 13:03:00,
2013-01-30 08:12:00,54.0,52.0,-100.00,SE,141,4.0,37.0,97,0.00,,,-99.99,,2013-01-30 13:12:00,
2013-01-30 08:23:00,49.0,46.0,-100.00,SE,142,5.0,37.0,97,0.00,,,-99.99,,2013-01-30 13:23:00,
2013-01-30 08:33:00,51.0,48.0,-100.00,SSE,155,6.0,37.0,97,0.00,,,-99.99,,2013-01-30 13:33:00,
2013-01-30 08:43:00,50.0,48.0,-100.00,ESE,117,5.0,37.0,97,0.00,,,-99.99,,2013-01-30 13:43:00,
2013-01-30 08:52:00,51.0,48.0,-100.00,SSE,152,4.0,37.0,97,0.00,,,-99.99,,2013-01-30 13:52:00,
2013-01-30 09:03:00,51.0,48.0,-100.00,SSE,151,6.0,37.0,95,0.00,,,-99.99,,2013-01-30 14:03:00,
2013-01-30 09:12:00,51.0,48.0,-100.00,SSE,153,7.0,37.0,97,0.00,,,-99.99,,2013-01-30 14:12:00,
2013-01-30 09:23:00,51.0,48.0,-100.00,SE,145,8.0,37.0,94,0.00,,,-99.99,,2013-01-30 14:23:00,
2013-01-30 09:33:00,50.0,48.0,-100.00,SE,144,7.0,37.0,94,0.00,,,-99.99,,2013-01-30 14:33:00,
2013-01-30 09:42:00,51.0,48.0,-100.00,SSE,151,8.0,37.0,93,0.00,,,-99.99,,2013-01-30 14:42:00,
2013-01-30 09:52:00,52.0,48.0,-100.00,SE,135,9.0,37.0,91,0.00,,,-99.99,,2013-01-30 14:52:00,
2013-01-30 10:03:00,53.0,48.0,-100.00,SSE,153,12.0,37.0,89,0.00,,,-99.99,,2013-01-30 15:03:00,
2013-01-30 10:12:00,52.0,48.0,-100.00,SE,145,13.0,37.0,89,0.00,,,-99.99,,2013-01-30 15:12:00,
2013-01-30 10:23:00,53.0,48.0,-100.00,SSW,194,12.0,37.0,88,0.00,,,-99.99,,2013-01-30 15:23:00,
2013-01-30 10:33:00,53.0,48.0,-100.00,SSW,194,12.0,37.0,88,0.00,,,-99.99,,2013-01-30 15:33:00,
2013-01-30 10:43:00,53.0,48.0,-100.00,South,187,12.0,37.0,89,0.00,,,-99.99,,2013-01-30 15:43:00,
2013-01-30 10:53:00,53.0,48.0,-100.00,SSW,199,11.0,37.0,88,0.00,,,-99.99,,2013-01-30 15:53:00,
2013-01-30 11:03:00,53.0,48.0,-100.00,South,190,13.0,37.0,88,0.00,,,-99.99,,2013-01-30 16:03:00,
2013-01-30 11:12:00,53.0,48.0,-100.00,South,183,14.0,14.0,86,0.00,,,-99.99,,2013-01-30 16:12:00,
2013-01-30 11:23:00,53.0,48.0,-100.00,SSE,160,13.0,14.0,88,0.00,,,-99.99,,2013-01-30 16:23:00,
2013-01-30 11:32:00,54.0,48.0,-100.00,SSW,194,13.0,14.0,86,0.00,,,-99.99,,2013-01-30 16:32:00,
2013-01-30 11:42:00,54.0,50.0,-100.00,South,184,13.0,17.0,88,0.00,,,-99.99,,2013-01-30 16:42:00,
2013-01-30 11:52:00,54.0,50.0,-100.00,South,182,16.0,22.0,89,0.00,,,-99.99,,2013-01-30 16:52:00,
2013-01-30 12:02:00,54.0,50.0,-100.00,SSW,194,17.0,22.0,89,0.00,,,-99.99,,2013-01-30 17:02:00,
2013-01-30 12:13:00,54.0,50.0,-100.00,SSW,193,18.0,22.0,88,0.00,,,-99.99,,2013-01-30 17:13:00,
2013-01-30 12:23:00,53.0,50.0,-100.00,SSW,199,17.0,22.0,89,0.00,,,-99.99,,2013-01-30 17:23:00,
2013-01-30 12:33:00,54.0,50.0,-100.00,SSW,201,19.0,22.0,88,0.00,,,-99.99,,2013-01-30 17:33:00,
2013-01-30 12:43:00,53.0,48.0,-100.00,South,189,19.0,22.0,88,0.00,,,-99.99,,2013-01-30 17:43:00,
2013-01-30 12:53:00,53.0,48.0,-100.00,SSW,203,17.0,22.0,89,0.00,,,-99.99,,2013-01-30 17:53:00,
2013-01-30 13:03:00,54.0,50.0,-100.00,SSW,196,17.0,22.0,89,0.00,,,-99.99,,2013-01-30 18:03:00,
2013-01-30 13:13:00,54.0,50.0,-100.00,SSW,193,17.0,22.0,88,0.00,,,-99.99,,2013-01-30 18:13:00,
2013-01-30 13:23:00,55.0,50.0,-100.00,SSW,201,16.0,22.0,86,0.00,,,-99.99,,2013-01-30 18:23:00,
2013-01-30 13:33:00,55.0,50.0,-100.00,SSW,194,16.0,22.0,88,0.00,,,-99.99,,2013-01-30 18:33:00,
2013-01-30 13:43:00,55.0,50.0,-100.00,SSW,204,16.0,22.0,86,0.00,,,-99.99,,2013-01-30 18:43:00,
2013-01-30 13:52:00,55.0,50.0,-100.00,SSW,210,16.0,22.0,88,0.00,,,-99.99,,2013-01-30 18:52:00,
2013-01-30 14:03:00,54.0,50.0,-100.00,SSW,199,16.0,22.0,89,0.00,,,-99.99,,2013-01-30 19:03:00,
2013-01-30 14:13:00,53.0,50.0,-100.00,SSW,210,14.0,22.0,90,0.00,,,-99.99,,2013-01-30 19:13:00,
2013-01-30 14:22:00,53.0,50.0,-100.00,SW,217,14.0,22.0,91,0.00,,,-99.99,,2013-01-30 19:22:00,
2013-01-30 14:33:00,54.0,50.0,-100.00,SW,214,14.0,22.0,89,0.00,,,-99.99,,2013-01-30 19:33:00,
2013-01-30 14:43:00,54.0,50.0,-100.00,SW,214,13.0,22.0,88,0.00,,,-99.99,,2013-01-30 19:43:00,
2013-01-30 14:52:00,54.0,50.0,-100.00,SW,214,14.0,22.0,89,0.00,,,-99.99,,2013-01-30 19:52:00,
2013-01-30 15:03:00,52.0,48.0,-100.00,SSW,194,12.0,22.0,91,0.00,,,-99.99,,2013-01-30 20:03:00,
2013-01-30 15:12:00,53.0,48.0,-100.00,SSW,207,12.0,22.0,89,0.00,,,-99.99,,2013-01-30 20:12:00,
2013-01-30 15:22:00,53.0,48.0,-100.00,SSW,211,13.0,22.0,86,0.00,,,-99.99,,2013-01-30 20:22:00,
2013-01-30 15:33:00,53.0,48.0,-100.00,SW,214,11.0,22.0,88,0.00,,,-99.99,,2013-01-30 20:33:00,
2013-01-30 15:42:00,53.0,48.0,-100.00,SSW,206,11.0,22.0,88,0.00,,,-99.99,,2013-01-30 20:42:00,
2013-01-30 15:52:00,53.0,48.0,-100.00,SSW,201,13.0,22.0,88,0.00,,,-99.99,,2013-01-30 20:52:00,
2013-01-30 16:03:00,54.0,48.0,-100.00,SSW,203,15.0,22.0,86,0.00,,,-99.99,,2013-01-30 21:03:00,
2013-01-30 16:12:00,53.0,48.0,-100.00,SSW,193,13.0,22.0,88,0.00,,,-99.99,,2013-01-30 21:12:00,
2013-01-30 16:23:00,53.0,48.0,-100.00,SSW,197,11.0,22.0,89,0.00,,,-99.99,,2013-01-30 21:23:00,
2013-01-30 16:32:00,54.0,48.0,-100.00,South,187,12.0,22.0,86,0.00,,,-99.99,,2013-01-30 21:32:00,
2013-01-30 16:42:00,53.0,48.0,-100.00,South,184,11.0,22.0,85,0.00,,,-99.99,,2013-01-30 21:42:00,
2013-01-30 16:52:00,53.0,48.0,-100.00,South,186,14.0,22.0,84,0.00,,,-99.99,,2013-01-30 21:52:00,
2013-01-30 17:03:00,53.0,48.0,-100.00,South,189,15.0,22.0,85,0.00,,,-99.99,,2013-01-30 22:03:00,
2013-01-30 17:12:00,53.0,48.0,-100.00,SSW,208,15.0,22.0,85,0.00,,,-99.99,,2013-01-30 22:12:00,
2013-01-30 17:22:00,53.0,48.0,-100.00,South,184,16.0,22.0,85,0.00,,,-99.99,,2013-01-30 22:22:00,
2013-01-30 17:32:00,52.0,46.0,-100.00,South,187,16.0,22.0,85,0.00,,,-99.99,,2013-01-30 22:32:00,
2013-01-30 17:42:00,53.0,48.0,-100.00,South,186,17.0,22.0,85,0.00,,,-99.99,,2013-01-30 22:42:00,
2013-01-30 17:52:00,52.0,46.0,-100.00,South,180,14.0,22.0,85,0.00,,,-99.99,,2013-01-30 22:52:00,
2013-01-30 18:02:00,53.0,46.0,-100.00,South,182,17.0,22.0,84,0.00,,,-99.99,,2013-01-30 23:02:00,
2013-01-30 18:12:00,52.0,46.0,-100.00,SSW,192,17.0,22.0,85,0.00,,,-99.99,,2013-01-30 23:12:00,
2013-01-30 18:22:00,47.0,43.0,-100.00,West,266,19.0,22.0,91,9.06,,,-99.99,,2013-01-30 23:22:00,
2013-01-30 18:33:00,45.0,43.0,-100.00,West,259,22.0,26.0,93,0.00,,,-99.99,,2013-01-30 23:33:00,
2013-01-30 18:42:00,45.0,41.0,-100.00,West,261,21.0,26.0,89,1.14,,,-99.99,,2013-01-30 23:42:00,
2013-01-30 18:52:00,44.0,41.0,-100.00,West,261,16.0,26.0,91,-99.99,,,-99.99,,2013-01-30 23:52:00,
2013-01-30 19:02:00,44.0,41.0,-100.00,West,262,21.0,26.0,91,21.54,,,-99.99,,2013-01-31 00:02:00,
2013-01-30 19:11:00,43.0,39.0,-100.00,West,262,21.0,26.0,90,17.01,,,-99.99,,2013-01-31 00:11:00,
2013-01-30 19:22:00,40.0,36.0,-100.00,WSW,254,22.0,26.0,89,6.22,,,-99.99,,2013-01-31 00:22:00,
2013-01-30 19:32:00,41.0,37.0,-100.00,West,271,23.0,34.0,89,4.53,,,-99.99,,2013-01-31 00:32:00,
2013-01-30 19:42:00,40.0,36.0,-100.00,West,259,20.0,34.0,90,9.06,,,-99.99,,2013-01-31 00:42:00,
2013-01-30 19:53:00,40.0,36.0,-100.00,WSW,258,23.0,34.0,89,1.14,,,-99.99,,2013-01-31 00:53:00,
2013-01-30 20:02:00,37.0,32.0,-100.00,West,261,29.0,34.0,86,9.06,,,-99.99,,2013-01-31 01:02:00,
2013-01-30 20:12:00,37.0,32.0,-100.00,WSW,252,24.0,34.0,86,0.00,,,-99.99,,2013-01-31 01:12:00,
2013-01-30 20:22:00,38.0,34.0,-100.00,West,259,22.0,34.0,86,0.00,,,-99.99,,2013-01-31 01:22:00,
2013-01-30 20:32:00,37.0,32.0,-100.00,WSW,254,21.0,34.0,85,1.14,,,-99.99,,2013-01-31 01:32:00,
2013-01-30 20:42:00,37.0,32.0,-100.00,WSW,248,21.0,34.0,85,0.00,,,-99.99,,2013-01-31 01:42:00,
2013-01-30 20:52:00,37.0,32.0,-100.00,WSW,249,20.0,34.0,84,0.00,,,-99.99,,2013-01-31 01:52:00,
2013-01-30 21:01:00,37.0,32.0,-100.00,West,261,21.0,34.0,84,0.00,,,-99.99,,2013-01-31 02:01:00,
2013-01-30 21:12:00,37.0,32.0,-100.00,WSW,256,22.0,34.0,85,0.00,,,-99.99,,2013-01-31 02:12:00,
2013-01-30 21:22:00,37.0,32.0,-100.00,West,265,18.0,34.0,85,0.00,,,-99.99,,2013-01-31 02:22:00,
2013-01-30 21:32:00,36.0,32.0,-100.00,West,259,21.0,34.0,84,0.00,,,-99.99,,2013-01-31 02:32:00,
2013-01-30 21:42:00,36.0,32.0,-100.00,West,259,21.0,34.0,84,0.00,,,-99.99,,2013-01-31 02:42:00,
2013-01-30 21:52:00,36.0,32.0,-100.00,West,259,21.0,34.0,84,0.00,,,-99.99,,2013-01-31 02:52:00,
2013-01-30 22:03:00,36.0,32.0,-100.00,West,268,25.0,34.0,81,0.00,,,-99.99,,2013-01-31 03:03:00,
2013-01-30 22:11:00,33.0,30.0,-100.00,WSW,255,25.0,34.0,85,0.00,,,-99.99,,2013-01-31 03:11:00,
2013-01-30 22:22:00,33.0,30.0,-100.00,SW,235,21.0,34.0,85,0.00,,,-99.99,,2013-01-31 03:22:00,
2013-01-30 22:32:00,34.0,32.0,-100.00,West,261,24.0,34.0,90,6.22,,,-99.99,,2013-01-31 03:32:00,
2013-01-30 22:42:00,34.0,32.0,-100.00,West,261,24.0,34.0,90,6.22,,,-99.99,,2013-01-31 03:42:00,
2013-01-30 22:51:00,35.0,32.0,-100.00,West,276,22.0,34.0,91,0.00,,,-99.99,,2013-01-31 03:51:00,
2013-01-30 23:02:00,33.0,30.0,-100.00,West,259,22.0,34.0,86,0.00,,,-99.99,,2013-01-31 04:02:00,
2013-01-30 23:11:00,34.0,30.0,-100.00,WNW,282,22.0,34.0,82,1.14,,,-99.99,,2013-01-31 04:11:00,
2013-01-30 23:22:00,34.0,30.0,-100.00,WSW,258,25.0,34.0,84,0.00,,,-99.99,,2013-01-31 04:22:00,
2013-01-30 23:32:00,33.0,30.0,-100.00,West,269,23.0,34.0,84,0.00,,,-99.99,,2013-01-31 04:32:00,
2013-01-30 23:42:00,34.0,30.0,-100.00,WSW,254,22.0,34.0,85,0.00,,,-99.99,,2013-01-31 04:42:00,
2013-01-30 23:51:00,34.0,30.0,-100.00,West,265,24.0,34.0,81,0.00,,,-99.99,,2013-01-31 04:51:00,